Weather History for Maputo, Mozambique

Change the Weather History Date:

Monday, February 11, 2013

  Actual Average Record
Temperature  
Mean Temperature 80 °F -  
Max Temperature 87 °F 84 °F 96 °F (2002)
Min Temperature 73 °F 72 °F 68 °F (1999)
Cooling Degree Days 15    
Growing Degree Days 30 (Base 50)    
Moisture  
Dew Point 71 °F    
Average Humidity 74    
Maximum Humidity 94    
Minimum Humidity 51    
Precipitation  
Precipitation 0.00 in - - ()
Sea Level Pressure  
Sea Level Pressure 29.92 in    
Wind  
Wind Speed 7 mph ()    
Max Wind Speed 15 mph    
Max Gust Speed -    
Visibility 9.2 miles    
Events      
Averages and records for this station are not official NWS values.
T = Trace of Precipitation, MM = Missing Value Source: Averaged Metar Reports

Daily Weather History Graph

Daily Weather History Graph

Search for Another Location

Airport:

Trip Planner

Search our weather history database for the weather conditions in past years. The results will help you decide how hot, cold, wet, or windy it might be!

Date:

Astronomy

Feb. 11, 2013 Rise Set
Actual Time 5:32 AM CAT 6:35 PM CAT
Civil Twilight 5:08 AM CAT 6:59 PM CAT
Nautical Twilight 4:39 AM CAT 7:27 PM CAT
Astronomical Twilight 4:10 AM CAT 7:56 PM CAT
Moon 6:31 AM CAT (2/11) 7:11 PM CAT (2/11)
Length of Visible Light 13h 51m
Length of Day
13h 02m
New Moon, 2% of the Moon is Illuminated
Feb 11
New Moon
Feb 17
First Quarter
Feb 25
Full
Mar 4
Last Quarter
Mar 11
New

Hourly Weather History & Observations

Time (CAT) Temp. Heat Index Dew Point Humidity Pressure Visibility Wind Dir Wind Speed Gust Speed Precip Events Conditions
12:00 AM 80.6 °F 84.6 °F 71.6 °F 74% 29.95 in 6.2 mi East 6.9 mph - N/A   Scattered Clouds
1:00 AM 78.8 °F - 71.6 °F 78% 29.95 in 6.2 mi East 8.1 mph - N/A   Scattered Clouds
2:00 AM 79 °F - 71 °F 71% 29.94 in 19 mi East 5.8 mph - -   Partly Cloudy
2:00 AM 78.8 °F - 71.6 °F 78% 29.92 in 6.2 mi East 5.8 mph - N/A   Scattered Clouds
5:00 AM 74 °F - 71 °F 87% 29.93 in 19 mi West 4.6 mph - -   Partly Cloudy
5:00 AM 75.2 °F - 71.6 °F 89% 29.92 in 6.2 mi West 4.6 mph - N/A   Scattered Clouds
6:00 AM 73.4 °F - 71.6 °F 94% 29.92 in 6.2 mi SW 4.6 mph - N/A   Scattered Clouds
7:00 AM 77.0 °F - 71.6 °F 83% 29.95 in 6.2 mi WSW 6.9 mph - N/A   Partly Cloudy
8:00 AM 78.8 °F - 71.6 °F 78% 29.95 in 6.2 mi SW 6.9 mph - N/A   Partly Cloudy
9:00 AM 80.6 °F 84.6 °F 71.6 °F 74% 29.95 in 6.2 mi South 3.5 mph - N/A   Scattered Clouds
10:00 AM 86.0 °F 88.2 °F 66.2 °F 51% 29.92 in 6.2 mi ESE 6.9 mph - N/A   Scattered Clouds
11:00 AM 86.0 °F 89.4 °F 68.0 °F 55% 29.92 in 6.2 mi SE 6.9 mph - N/A   Scattered Clouds
12:00 PM 86.0 °F 91.8 °F 71.6 °F 62% 29.89 in 6.2 mi East 12.7 mph - N/A   Scattered Clouds
3:00 PM 86.0 °F 89.4 °F 68.0 °F 55% 29.86 in 6.2 mi East 15.0 mph - N/A   Scattered Clouds
5:00 PM 82 °F - 70 °F 58% 29.86 in 19 mi East 13.8 mph - -   Scattered Clouds
8:00 PM 80 °F - 73 °F 74% 29.88 in 19 mi East 15.0 mph - -   Partly Cloudy
8:00 PM 80.6 °F 85.4 °F 73.4 °F 79% 29.86 in 6.2 mi East 15.0 mph - N/A   Scattered Clouds
9:00 PM 80.6 °F 85.4 °F 73.4 °F 79% 29.89 in 6.2 mi East 12.7 mph - N/A   Scattered Clouds
10:00 PM 80.6 °F 84.6 °F 71.6 °F 74% 29.92 in 6.2 mi ENE 12.7 mph - N/A   Mostly Cloudy
11:00 PM 80 °F - 73 °F 73% 29.93 in 19 mi ENE 9.2 mph - -   Mostly Cloudy
11:00 PM 80.6 °F 85.4 °F 73.4 °F 79% 29.92 in 6.2 mi ENE 9.2 mph - N/A   Mostly Cloudy